sat.trackr.live / text

‹ back to catalog

STARLINK-37747

NORAD 69440 · 2026-126W

PAYLOAD ACTIVE UNKNOWN

§ Identity

Operator
Country
US
Launch date
2026-06-07
Launch site
AFWTR
Launch vehicle
Mass (kg)
RCS (m²)

Purposes: comms

External: N2YO · Heavens-Above · Gunter

§ Orbital elements

Epoch: 2026-09-19T10:19:03.994176Z

Period
93.91 min
Inclination
97.2843°
Eccentricity
0.0002033
Mean motion
15.33451770 rev/d
Perigee alt
464.1 km
Apogee alt
466.9 km
Semi-major
6,843.7 km
B*
5.5702e-4
RAAN
123.7310°
Arg perigee
86.7854°
Mean anomaly
273.3621°
Rev number
1,736

§ Raw data

STARLINK-377471 69440U 26126W   26262.42990734  .00017955  00000+0  55702-3 0  99942 69440  97.2843 123.7310 0002033  86.7854 273.3621 15.33451770 17368

JSON: /api/v1/satellites/69440 · /tle

For live sub-satellite position, see the globe view (requires WebGL).

§ Visibility from observer

Set your observer location to see the next 7 days of passes ≥ 10°. The values pass through the URL so the page stays shareable.

No JS? Fill the form by hand. The geolocation button needs JavaScript.